Volver al catálogo

STARLINK-30483

ActivoComunicacionesVLEO
NORAD 57914·PAYLOAD·🇺🇸 United States

Lanzado Sep 24, 2023 desde Cape Canaveral Space Force Station

Loading…

Próximos Pases (próximas 24 horas)

TLE

ActualizadoSource: CelesTrak SupGP

Época: Sep 14, 2026, 20:48 UTC

1 57914C 23147B   26257.86715278  .00014242  00000+0  51571-3 0  2570
2 57914  43.0022 191.2561 0001345 262.7288  14.5962 15.27580596    18

Sigue STARLINK-30483 en tiempo real con AllMySat

Download on the App Store